Total_Precipitation_Accumulation
2.50 2.50 2.40 2.33 2.28 2.28 2.32 2.21 2.06 1.92 1.79 1.74 1.66 1.68 1.71 1.67 1.73 1.86 1.87 1.98 2.09 2.10 2.05 2.02 2.02 2.16 2.30 2.33 2.45 2.59 2.86 3.18 3.28 3.00 2.71 2.55 2.60 2.69 2.82 2.83 2.67 2.54 2.35
2.22 2.25 2.30 2.13 2.04 2.00 1.97 1.92 1.80 1.75 1.70 1.66 1.61 1.61 1.61 1.59 1.63 1.65 1.65 1.73 1.87 1.88 1.88 1.92 1.78 1.85 2.05 2.17 2.32 2.41 2.61 2.87 3.05 2.99 2.77 2.68 2.64 2.64 2.81 2.83 2.58 2.29 2.11
1.77 1.90 2.00 1.84 1.70 1.71 1.69 1.65 1.66 1.59 1.55 1.48 1.44 1.40 1.37 1.45 1.52 1.58 1.59 1.62 1.62 1.66 1.78 1.79 1.74 1.87 1.95 2.12 2.24 2.31 2.49 2.57 2.85 2.86 2.64 2.63 2.68 2.65 2.79 2.66 2.42 2.36 1.90
1.66 1.67 1.67 1.65 1.59 1.57 1.55 1.53 1.50 1.44 1.39 1.30 1.23 1.22 1.25 1.27 1.28 1.32 1.38 1.46 1.53 1.56 1.63 1.64 1.64 1.72 1.86 2.10 2.18 2.34 2.54 2.68 2.83 2.85 2.71 2.67 2.73 2.83 2.86 2.84 2.65 2.43 2.10
1.65 1.67 1.61 1.54 1.47 1.49 1.51 1.47 1.40 1.38 1.28 1.25 1.22 1.19 1.20 1.21 1.14 1.17 1.30 1.38 1.53 1.59 1.58 1.55 1.52 1.54 1.69 1.85 1.91 2.20 2.51 2.69 2.76 2.82 2.75 2.69 2.67 2.84 2.70 2.55 2.54 2.41 2.15
1.69 1.68 1.63 1.55 1.46 1.46 1.51 1.50 1.47 1.48 1.46 1.37 1.35 1.30 1.23 1.07 1.13 1.18 1.22 1.38 1.51 1.55 1.64 1.60 1.42 1.37 1.41 1.47 1.54 1.68 2.03 2.33 2.54 2.68 2.66 2.59 2.50 2.55 2.57 2.47 2.48 2.51 2.33
1.59 1.59 1.64 1.60 1.48 1.40 1.39 1.52 1.52 1.56 1.50 1.45 1.40 1.34 1.28 1.20 1.19 1.10 1.11 1.24 1.46 1.57 1.64 1.68 1.48 1.32 1.43 1.43 1.42 1.39 1.52 1.80 2.16 2.48 2.59 2.41 2.44 2.50 2.63 2.60 2.48 2.46 2.38
1.50 1.44 1.51 1.51 1.49 1.42 1.44 1.51 1.54 1.59 1.58 1.45 1.34 1.33 1.39 1.20 1.14 1.06 1.10 1.20 1.41 1.52 1.52 1.54 1.62 1.59 1.39 1.40 1.51 1.58 1.67 1.78 1.89 1.99 2.26 2.37 2.41 2.41 2.43 2.46 2.53 2.54 2.38
1.43 1.39 1.35 1.31 1.32 1.34 1.35 1.45 1.60 1.64 1.57 1.39 1.29 1.31 1.30 1.11 1.01 0.96 0.98 1.11 1.32 1.40 1.33 1.28 1.33 1.36 1.29 1.32 1.54 1.85 1.98 2.12 1.94 1.94 2.06 2.25 2.31 2.18 2.10 2.26 2.58 2.70 2.45
1.36 1.24 1.26 1.30 1.29 1.27 1.34 1.45 1.47 1.52 1.49 1.35 1.25 1.24 1.18 1.05 0.96 0.86 0.86 0.92 1.09 1.18 1.25 1.23 1.25 1.21 1.20 1.28 1.53 1.96 2.19 2.23 2.00 1.87 2.02 2.19 2.11 2.05 2.10 2.23 2.52 2.61 2.43
1.24 1.18 1.23 1.23 1.24 1.23 1.35 1.39 1.41 1.38 1.42 1.41 1.34 1.23 1.13 1.00 0.85 0.79 0.77 0.77 0.88 1.04 1.11 1.18 1.21 1.18 1.12 1.22 1.46 1.78 2.04 2.12 2.05 2.01 2.09 2.18 2.21 2.22 2.13 2.15 2.30 2.36 2.38
1.17 1.15 1.15 1.13 1.05 1.04 1.29 1.41 1.41 1.47 1.39 1.31 1.34 1.26 1.09 0.96 0.78 0.64 0.62 0.65 0.77 1.01 1.13 1.13 1.17 1.18 1.15 1.26 1.37 1.67 1.97 2.14 2.06 1.96 1.93 1.97 1.98 2.00 1.95 1.87 1.89 1.96 2.03
1.13 1.21 1.14 1.06 1.14 1.10 1.13 1.19 1.24 1.34 1.27 1.16 1.14 1.11 0.98 0.85 0.71 0.59 0.53 0.55 0.66 0.81 0.99 1.11 1.10 1.07 1.22 1.49 1.64 1.81 2.03 2.21 2.12 1.91 1.83 1.76 1.75 1.78 1.73 1.75 1.78 1.81 1.77
1.16 1.23 1.21 1.13 1.17 1.15 1.11 1.05 0.97 0.99 1.03 1.08 1.06 1.01 0.94 0.86 0.68 0.54 0.53 0.56 0.62 0.70 0.83 1.03 1.18 1.25 1.40 1.70 1.94 2.06 2.13 2.11 1.96 1.81 1.73 1.68 1.65 1.67 1.70 1.66 1.75 1.78 1.83
1.24 1.20 1.17 1.08 1.03 1.05 0.99 0.94 0.86 0.83 0.88 0.92 0.92 0.92 0.89 0.77 0.62 0.58 0.54 0.55 0.62 0.70 0.83 1.03 1.20 1.30 1.51 1.75 1.89 1.93 1.93 1.89 1.84 1.73 1.63 1.61 1.63 1.66 1.68 1.67 1.71 1.67 1.71
1.11 1.09 1.03 1.00 0.91 0.84 0.83 0.78 0.73 0.67 0.68 0.69 0.69 0.67 0.67 0.65 0.64 0.59 0.55 0.60 0.70 0.81 0.90 1.13 1.32 1.42 1.59 1.71 1.83 1.80 1.73 1.71 1.69 1.67 1.64 1.57 1.56 1.59 1.66 1.67 1.63 1.59 1.62
0.96 0.99 0.93 0.84 0.84 0.80 0.78 0.82 0.77 0.65 0.59 0.59 0.59 0.58 0.59 0.59 0.55 0.54 0.54 0.62 0.72 0.83 0.94 1.18 1.38 1.50 1.62 1.65 1.67 1.66 1.63 1.58 1.51 1.52 1.52 1.49 1.47 1.50 1.54 1.57 1.54 1.51 1.51
0.88 0.88 0.85 0.78 0.78 0.77 0.73 0.71 0.72 0.76 0.76 0.69 0.60 0.54 0.51 0.52 0.56 0.57 0.58 0.64 0.77 0.85 1.00 1.20 1.40 1.46 1.50 1.55 1.55 1.54 1.52 1.47 1.43 1.46 1.52 1.48 1.40 1.37 1.34 1.36 1.40 1.38 1.35
0.85 0.83 0.79 0.77 0.79 0.77 0.73 0.65 0.63 0.66 0.73 0.75 0.71 0.63 0.59 0.59 0.64 0.70 0.72 0.74 0.83 0.89 0.98 1.10 1.20 1.30 1.38 1.44 1.45 1.43 1.43 1.40 1.35 1.35 1.38 1.38 1.34 1.26 1.19 1.16 1.19 1.15 1.15
0.91 0.93 0.88 0.82 0.80 0.80 0.76 0.68 0.64 0.65 0.69 0.71 0.70 0.65 0.60 0.68 0.78 0.82 0.83 0.80 0.83 0.90 0.94 1.00 1.03 1.06 1.15 1.24 1.24 1.20 1.23 1.23 1.22 1.24 1.23 1.25 1.28 1.23 1.14 1.08 1.07 1.10 1.14
0.88 0.88 0.88 0.86 0.89 0.90 0.87 0.81 0.70 0.69 0.71 0.73 0.68 0.63 0.70 0.73 0.85 0.86 0.85 0.84 0.86 0.87 0.86 0.87 0.90 0.92 0.91 0.95 1.02 1.04 1.09 1.18 1.21 1.21 1.20 1.18 1.16 1.11 1.04 1.01 1.03 1.04 1.02
0.93 0.92 0.88 0.84 0.90 0.93 0.92 0.89 0.81 0.75 0.76 0.77 0.73 0.67 0.75 0.77 0.83 0.84 0.83 0.86 0.88 0.92 0.91 0.87 0.83 0.83 0.85 0.89 0.95 1.01 1.07 1.11 1.12 1.16 1.15 1.10 1.10 1.05 0.99 0.97 0.98 1.00 0.99
0.92 0.92 0.93 0.94 0.93 0.89 0.84 0.81 0.81 0.79 0.81 0.79 0.74 0.74 0.75 0.80 0.88 0.92 0.92 0.91 0.91 0.91 0.87 0.85 0.86 0.87 0.85 0.85 0.87 0.92 0.94 0.94 1.00 1.07 1.10 1.01 0.95 0.94 0.90 0.89 0.90 0.94 0.94
0.92 0.88 0.84 0.90 0.93 0.87 0.83 0.82 0.81 0.80 0.80 0.82 0.79 0.75 0.79 0.81 0.85 0.90 0.96 0.99 0.98 0.95 0.89 0.87 0.87 0.85 0.82 0.81 0.82 0.82 0.79 0.80 0.82 0.86 0.88 0.83 0.78 0.78 0.76 0.77 0.76 0.79 0.84
0.87 0.95 0.92 0.89 0.85 0.81 0.85 0.88 0.85 0.85 0.88 0.87 0.83 0.79 0.80 0.80 0.85 0.88 0.90 0.96 0.98 0.97 0.96 0.97 0.97 0.91 0.80 0.72 0.71 0.72 0.82 0.84 0.79 0.77 0.78 0.77 0.70 0.70 0.72 0.72 0.73 0.74 0.78
0.72 0.82 0.91 0.91 0.86 0.80 0.85 0.88 0.86 0.87 0.91 0.92 0.85 0.78 0.74 0.74 0.76 0.76 0.76 0.82 0.89 0.94 0.97 1.02 1.02 0.93 0.82 0.74 0.73 0.75 0.74 0.66 0.64 0.68 0.74 0.73 0.67 0.65 0.67 0.69 0.67 0.69 0.74